Weather reports worldwide

Advertisment
Braemar, United Kingdom (99089): temperature & dewpoint: 17.05.2018 02:00:00 - 23.05.2018 02:00:00 (BST)Braemar, United Kingdom (99089): temperature -20cm & temperature -100cm: 17.05.2018 02:00:00 - 23.05.2018 02:00:00 (BST)Braemar, United Kingdom (99089): precipitation: 17.05.2018 02:00:00 - 23.05.2018 02:00:00 (BST)
Date & Time tt [°C] td [°C] tt -20cm [°C] tt -100cm [°C] rr [mm]
23.05.2018 02:00:00 6,6 4,9 - - 0,0
23.05.2018 01:00:00 6,8 4,9 - - 0,0
23.05.2018 00:00:00 6,9 4,9 - - 0,0
22.05.2018 23:00:00 7,0 4,8 - - 0,0
22.05.2018 22:00:00 7,5 5,2 - - 0,0
22.05.2018 21:00:00 7,8 4,9 - - 0,0
22.05.2018 20:00:00 8,1 4,9 - - 0,0
22.05.2018 19:00:00 8,2 5,3 - - 0,0
22.05.2018 18:00:00 8,7 5,5 - - 0,0
22.05.2018 17:00:00 9,3 5,6 - - 0,0
22.05.2018 16:00:00 10,2 5,7 - - 0,0
22.05.2018 15:00:00 10,0 6,0 - - 0,0
22.05.2018 14:00:00 10,1 5,9 - - 0,0
22.05.2018 13:00:00 9,8 5,9 - - 0,0
22.05.2018 12:00:00 8,4 5,4 - - 0,0
22.05.2018 11:00:00 7,4 5,0 - - 0,0
22.05.2018 10:00:00 7,0 4,2 12,0 9,9 0,0
22.05.2018 09:00:00 6,5 4,7 - - 0,0
22.05.2018 08:00:00 6,2 4,0 - - 0,0
22.05.2018 07:00:00 5,8 4,1 - - 0,2
22.05.2018 06:00:00 5,8 3,8 - - 0,8
22.05.2018 05:00:00 5,8 4,0 - - 0,2
22.05.2018 04:00:00 5,7 3,9 - - 0,0
22.05.2018 03:00:00 6,2 3,6 - - 0,0
22.05.2018 02:00:00 6,2 3,8 - - 0,0
22.05.2018 01:00:00 6,2 3,7 - - 0,0
22.05.2018 00:00:00 6,3 4,0 - - 0,0
21.05.2018 23:00:00 6,5 4,0 - - 0,0
21.05.2018 22:00:00 7,3 4,3 - - 0,0
21.05.2018 21:00:00 8,0 4,6 - - 0,0
21.05.2018 20:00:00 9,7 5,7 - - 0,0
21.05.2018 19:00:00 13,0 6,9 - - 0,0
21.05.2018 18:00:00 16,0 8,5 - - 0,0
21.05.2018 17:00:00 17,0 8,6 - - 0,0
21.05.2018 16:00:00 16,2 9,2 - - 0,0
21.05.2018 15:00:00 16,4 8,3 - - 0,0
21.05.2018 14:00:00 16,3 8,9 - - 0,0
21.05.2018 13:00:00 17,0 8,4 - - 0,0
21.05.2018 12:00:00 16,6 8,6 - - 0,0
21.05.2018 11:00:00 17,3 8,9 - - 0,0
21.05.2018 10:00:00 15,7 7,5 12,0 9,7 0,0
21.05.2018 09:00:00 14,4 7,5 - - 0,0
21.05.2018 08:00:00 13,6 7,1 - - 0,0
21.05.2018 07:00:00 12,4 6,6 - - 0,0
21.05.2018 06:00:00 11,8 6,7 - - 0,0
21.05.2018 05:00:00 11,2 6,4 - - 0,0
21.05.2018 04:00:00 11,4 7,5 - - 0,0
21.05.2018 03:00:00 12,2 7,9 - - 0,0
21.05.2018 02:00:00 12,3 7,9 - - 0,0
21.05.2018 01:00:00 12,4 8,2 - - 0,0
21.05.2018 00:00:00 12,5 8,3 - - 0,0
20.05.2018 23:00:00 12,8 8,1 - - 0,0
20.05.2018 22:00:00 13,2 8,4 - - 0,0
20.05.2018 21:00:00 13,5 9,0 - - 0,0
20.05.2018 20:00:00 13,9 8,7 - - 0,0
20.05.2018 19:00:00 14,1 9,3 - - 0,0
20.05.2018 18:00:00 15,6 8,7 - - 0,0
20.05.2018 17:00:00 15,5 8,7 - - 0,0
20.05.2018 16:00:00 15,0 8,4 - - 0,0
20.05.2018 15:00:00 15,5 9,0 - - 0,0
20.05.2018 14:00:00 15,4 8,5 - - 0,0
20.05.2018 13:00:00 14,2 8,5 - - 0,0
20.05.2018 12:00:00 12,8 7,6 - - 0,0
20.05.2018 11:00:00 12,2 7,6 - - 0,0
20.05.2018 10:00:00 12,1 7,1 11,9 9,5 0,0
20.05.2018 09:00:00 11,8 6,8 - - 0,0
20.05.2018 08:00:00 10,9 6,5 - - 0,0
20.05.2018 07:00:00 10,6 6,4 - - 0,0
20.05.2018 06:00:00 10,6 6,4 - - 0,0
20.05.2018 05:00:00 11,2 6,7 - - 0,0
20.05.2018 04:00:00 11,3 5,7 - - 0,0
20.05.2018 03:00:00 11,8 5,6 - - 0,0
20.05.2018 02:00:00 12,4 5,6 - - 0,0
20.05.2018 01:00:00 12,3 5,2 - - 0,0
20.05.2018 00:00:00 12,6 5,1 - - 0,0
19.05.2018 23:00:00 13,1 5,5 - - 0,0
19.05.2018 22:00:00 13,5 5,9 - - 0,0
19.05.2018 21:00:00 14,4 5,0 - - 0,0
19.05.2018 20:00:00 15,1 5,2 - - 0,0
19.05.2018 19:00:00 16,1 6,6 - - 0,0
19.05.2018 18:00:00 17,1 6,3 - - 0,0
19.05.2018 17:00:00 17,3 6,8 - - 0,0
19.05.2018 16:00:00 17,1 6,7 - - 0,0
19.05.2018 15:00:00 16,4 5,9 - - 0,0
19.05.2018 14:00:00 16,7 6,3 - - 0,0
19.05.2018 13:00:00 16,4 7,2 - - 0,0
19.05.2018 12:00:00 16,8 7,3 - - 0,0
19.05.2018 11:00:00 15,5 7,1 - - 0,0
19.05.2018 10:00:00 14,9 6,5 11,4 9,2 0,0
19.05.2018 09:00:00 12,0 7,8 - - 0,0
19.05.2018 08:00:00 7,6 5,6 - - 0,0
19.05.2018 07:00:00 4,0 3,6 - - 0,0
19.05.2018 06:00:00 1,8 1,3 - - 0,0
19.05.2018 05:00:00 2,0 1,4 - - 0,0
19.05.2018 04:00:00 2,8 2,2 - - 0,0
19.05.2018 03:00:00 3,0 2,5 - - 0,0
19.05.2018 02:00:00 2,5 1,1 - - 0,0
19.05.2018 01:00:00 4,1 3,2 - - 0,0
19.05.2018 00:00:00 5,2 4,1 - - 0,0
18.05.2018 23:00:00 6,5 4,0 - - 0,0
18.05.2018 22:00:00 9,4 5,4 - - 0,0
18.05.2018 21:00:00 11,1 5,5 - - 0,0
18.05.2018 20:00:00 14,1 5,5 - - 0,0
18.05.2018 19:00:00 15,0 5,6 - - 0,0
18.05.2018 18:00:00 15,3 4,7 - - 0,0
18.05.2018 17:00:00 17,1 4,1 - - 0,0
18.05.2018 16:00:00 16,0 4,3 - - 0,0
18.05.2018 15:00:00 17,1 3,8 - - 0,0
18.05.2018 14:00:00 16,2 2,5 - - 0,0
18.05.2018 13:00:00 14,6 0,4 - - 0,0
18.05.2018 12:00:00 13,5 1,3 - - 0,0
18.05.2018 11:00:00 13,9 3,5 - - 0,0
18.05.2018 10:00:00 12,8 4,9 11,4 9,2 0,0
18.05.2018 09:00:00 8,6 2,8 - - 0,0
18.05.2018 08:00:00 6,3 3,4 - - 0,0
18.05.2018 07:00:00 2,7 1,7 - - 0,0
18.05.2018 06:00:00 0,5 -0,2 - - 0,0
18.05.2018 05:00:00 0,8 -0,1 - - 0,0
18.05.2018 04:00:00 1,3 0,4 - - 0,0
18.05.2018 03:00:00 1,4 0,3 - - 0,0
18.05.2018 02:00:00 2,1 0,9 - - 0,0
18.05.2018 01:00:00 2,8 1,5 - - 0,0
18.05.2018 00:00:00 4,0 2,3 - - 0,0
17.05.2018 23:00:00 5,8 2,5 - - 0,0
17.05.2018 22:00:00 9,2 3,9 - - 0,0
17.05.2018 21:00:00 10,8 4,9 - - 0,0
17.05.2018 20:00:00 13,3 5,2 - - 0,0
17.05.2018 19:00:00 14,5 5,9 - - 0,0
17.05.2018 18:00:00 15,0 4,6 - - 0,0
17.05.2018 17:00:00 15,6 4,1 - - 0,0
17.05.2018 16:00:00 15,7 1,4 - - 0,0
17.05.2018 15:00:00 15,8 1,3 - - 0,0
17.05.2018 14:00:00 14,7 2,6 - - 0,0
17.05.2018 13:00:00 13,6 0,0 - - 0,0
17.05.2018 12:00:00 13,1 2,2 - - 0,0
17.05.2018 11:00:00 12,0 3,4 - - 0,0
17.05.2018 10:00:00 9,4 3,3 11,0 9,0 0,0
17.05.2018 09:00:00 6,2 3,2 - - 0,0
17.05.2018 08:00:00 3,8 2,0 - - 0,0
17.05.2018 07:00:00 -0,1 -0,5 - - 0,0
17.05.2018 06:00:00 -0,9 -1,4 - - 0,0
17.05.2018 05:00:00 -0,5 -1,1 - - 0,0
17.05.2018 04:00:00 -0,3 -1,0 - - 0,0
17.05.2018 03:00:00 0,0 -0,7 - - 0,0
17.05.2018 02:00:00 1,1 0,2 - - 0,0

tt = temperature
td = dewpoint
tt -20cm = temperature -20cm
tt -100cm = temperature -100cm
rr = precipitation

Next stations